When you browse on this site, cookies collect data to enhance your experience and personalize the content and advertising you see.
Visit our Privacy Policy to learn more. By continuing to use the site, you agree to this use of cookies and data.
  • In Romania
  • List of Countries
  • For 7 days
  • Water Temperature
  • Weather Map
  • Weather Widgets
  • user-avatar
    Login

    Hourly Weather Estelí

    Today, 28 May, Thursday

    Time Temperature Precipitation Wind Pressure Humidity
    00:00 +23°C° 0.1 mm 1 mps 687 mmHg 90%
    01:00 +23°C° 0 mm 1 mps 686 mmHg 90%
    02:00 +22°C° 0 mm 1 mps 686 mmHg 90%
    03:00 +22°C° 0 mm 1 mps 685 mmHg 90%
    04:00 +21°C° 0 mm 2 mps 686 mmHg 90%
    05:00 +21°C° 0 mm 2 mps 686 mmHg 90%
    06:00 +21°C° 0 mm 2 mps 686 mmHg 90%
    07:00 +24°C° 0 mm 2 mps 687 mmHg 84%
    08:00 +26°C° 0 mm 2 mps 687 mmHg 78%
    09:00 +27°C° 0 mm 1 mps 688 mmHg 72%
    10:00 +28°C° 0.4 mm 1 mps 687 mmHg 71%
    11:00 +28°C° 0.4 mm 2 mps 687 mmHg 69%
    12:00 +29°C° 0.4 mm 2 mps 687 mmHg 68%
    13:00 +28°C° 2.3 mm 2 mps 686 mmHg 69%
    14:00 +28°C° 2.3 mm 2 mps 686 mmHg 71%
    15:00 +28°C° 2.3 mm 2 mps 685 mmHg 73%
    16:00 +26°C° 1.2 mm 2 mps 685 mmHg 78%
    17:00 +25°C° 1.2 mm 2 mps 686 mmHg 83%
    18:00 +24°C° 1.2 mm 1 mps 686 mmHg 88%
    19:00 +24°C° 0.2 mm 1 mps 686 mmHg 88%
    20:00 +23°C° 0.2 mm 1 mps 687 mmHg 89%
    21:00 +23°C° 0.2 mm 1 mps 687 mmHg 90%
    22:00 +23°C° 0.4 mm 1 mps 687 mmHg 90%
    23:00 +23°C° 0.4 mm 1 mps 687 mmHg 90%

    Tomorrow, 29 May, Friday

    Time Temperature Precipitation Wind Pressure Humidity
    00:00 +23°C° 0.4 mm 1 mps 687 mmHg 90%
    01:00 +23°C° 0.1 mm 1 mps 686 mmHg 90%
    02:00 +22°C° 0.1 mm 1 mps 686 mmHg 91%
    03:00 +22°C° 0.1 mm 1 mps 685 mmHg 91%
    04:00 +22°C° 0.1 mm 1 mps 686 mmHg 91%
    05:00 +22°C° 0.1 mm 1 mps 686 mmHg 91%
    06:00 +22°C° 0.1 mm 1 mps 686 mmHg 91%
    07:00 +23°C° 0.3 mm 1 mps 686 mmHg 90%
    08:00 +23°C° 0.3 mm 1 mps 687 mmHg 89%
    09:00 +23°C° 0.3 mm 1 mps 687 mmHg 89%
    10:00 +24°C° 0.1 mm 1 mps 687 mmHg 85%
    11:00 +25°C° 0.1 mm 1 mps 687 mmHg 81%
    12:00 +25°C° 0.1 mm 1 mps 686 mmHg 77%
    13:00 +25°C° 0.3 mm 1 mps 686 mmHg 78%
    14:00 +25°C° 0.3 mm 1 mps 685 mmHg 78%
    15:00 +25°C° 0.3 mm 1 mps 685 mmHg 78%
    16:00 +25°C° 0.3 mm 1 mps 685 mmHg 81%
    17:00 +24°C° 0.3 mm 1 mps 685 mmHg 84%
    18:00 +23°C° 0.3 mm 1 mps 685 mmHg 87%
    19:00 +23°C° 0 mm 1 mps 686 mmHg 88%
    20:00 +22°C° 0 mm 1 mps 686 mmHg 89%
    21:00 +21°C° 0 mm 2 mps 686 mmHg 90%
    22:00 +21°C° 0 mm 2 mps 686 mmHg 91%
    23:00 +21°C° 0 mm 2 mps 686 mmHg 91%

    Day after tomorrow, 30 May, Saturday

    Time Temperature Precipitation Wind Pressure Humidity
    00:00 +20°C° 0 mm 2 mps 686 mmHg 92%
    01:00 +20°C° 0 mm 2 mps 686 mmHg 92%
    02:00 +21°C° 0 mm 1 mps 685 mmHg 92%
    03:00 +21°C° 0 mm 1 mps 685 mmHg 92%
    04:00 +21°C° 0.1 mm 1 mps 685 mmHg 92%
    05:00 +21°C° 0.1 mm 1 mps 685 mmHg 93%
    06:00 +21°C° 0.1 mm 1 mps 685 mmHg 93%
    07:00 +21°C° 2.5 mm 1 mps 686 mmHg 94%
    08:00 +21°C° 2.5 mm 1 mps 686 mmHg 95%
    09:00 +21°C° 2.5 mm 1 mps 686 mmHg 96%
    10:00 +22°C° 1.5 mm 1 mps 686 mmHg 94%
    11:00 +22°C° 1.5 mm 1 mps 686 mmHg 92%
    12:00 +23°C° 1.5 mm 1 mps 686 mmHg 90%
    13:00 +23°C° 0.6 mm 1 mps 686 mmHg 90%
    14:00 +23°C° 0.6 mm 1 mps 685 mmHg 90%
    15:00 +23°C° 0.6 mm 1 mps 685 mmHg 90%
    16:00 +23°C° 0.8 mm 1 mps 685 mmHg 92%
    17:00 +22°C° 0.8 mm 1 mps 685 mmHg 94%
    18:00 +22°C° 0.8 mm 1 mps 685 mmHg 95%
    19:00 +22°C° 1.7 mm 1 mps 686 mmHg 96%
    20:00 +22°C° 1.7 mm 1 mps 686 mmHg 97%
    21:00 +21°C° 1.7 mm 1 mps 687 mmHg 97%
    22:00 +21°C° 1.3 mm 1 mps 686 mmHg 97%
    23:00 +21°C° 1.3 mm 1 mps 686 mmHg 97%

    31 May, Sunday

    Time Temperature Precipitation Wind Pressure Humidity
    00:00 +21°C° 1.3 mm 1 mps 686 mmHg 97%
    01:00 +21°C° 0.6 mm 1 mps 685 mmHg 97%
    02:00 +21°C° 0.6 mm 1 mps 685 mmHg 97%
    03:00 +21°C° 0.6 mm 1 mps 685 mmHg 97%
    04:00 +21°C° 3 mm 1 mps 685 mmHg 97%
    05:00 +21°C° 3 mm 1 mps 685 mmHg 97%
    06:00 +21°C° 3 mm 1 mps 686 mmHg 97%
    07:00 +21°C° 2.1 mm 1 mps 686 mmHg 96%
    08:00 +21°C° 2.1 mm 1 mps 687 mmHg 96%
    09:00 +22°C° 2.1 mm 1 mps 687 mmHg 95%
    10:00 +22°C° 0.5 mm 1 mps 687 mmHg 92%
    11:00 +23°C° 0.5 mm 1 mps 687 mmHg 90%
    12:00 +23°C° 0.5 mm 1 mps 687 mmHg 87%
    13:00 +23°C° 0.4 mm 1 mps 686 mmHg 88%
    14:00 +21°C° 0.4 mm 0 mps 686 mmHg 88%
    15:00 +21°C° 0.4 mm 0 mps 685 mmHg 89%
    16:00 +21°C° 0.2 mm 0 mps 685 mmHg 89%
    17:00 +21°C° 0.2 mm 0 mps 685 mmHg 89%
    18:00 +22°C° 0.2 mm 1 mps 685 mmHg 88%
    19:00 +22°C° 0 mm 1 mps 686 mmHg 89%
    20:00 +22°C° 0 mm 1 mps 687 mmHg 89%
    21:00 +22°C° 0 mm 1 mps 687 mmHg 89%
    22:00 +21°C° 0 mm 1 mps 687 mmHg 89%
    23:00 +21°C° 0 mm 1 mps 686 mmHg 90%

    1 June, Monday

    Time Temperature Precipitation Wind Pressure Humidity
    00:00 +21°C° 0 mm 1 mps 686 mmHg 90%
    01:00 +21°C° 0 mm 1 mps 686 mmHg 90%
    02:00 +21°C° 0 mm 1 mps 685 mmHg 90%
    03:00 +21°C° 0 mm 1 mps 685 mmHg 90%
    04:00 +21°C° 0 mm 1 mps 685 mmHg 90%
    05:00 +21°C° 0 mm 1 mps 686 mmHg 90%
    06:00 +21°C° 0 mm 1 mps 686 mmHg 90%
    07:00 +23°C° 0 mm 1 mps 687 mmHg 84%
    08:00 +22°C° 0 mm 0 mps 687 mmHg 79%
    09:00 +24°C° 0 mm 0 mps 688 mmHg 74%
    10:00 +27°C° 0.2 mm 1 mps 688 mmHg 72%
    11:00 +27°C° 0.2 mm 1 mps 687 mmHg 69%
    12:00 +28°C° 0.2 mm 1 mps 687 mmHg 67%
    13:00 +27°C° 1 mm 1 mps 687 mmHg 71%
    14:00 +26°C° 1 mm 1 mps 686 mmHg 76%
    15:00 +26°C° 1 mm 1 mps 685 mmHg 80%
    16:00 +25°C° 1.2 mm 1 mps 685 mmHg 84%
    17:00 +24°C° 1.2 mm 1 mps 686 mmHg 87%
    18:00 +21°C° 1.2 mm 0 mps 686 mmHg 91%
    19:00 +21°C° 0.5 mm 0 mps 686 mmHg 91%
    20:00 +21°C° 0.5 mm 0 mps 686 mmHg 91%
    21:00 +20°C° 0.5 mm 0 mps 687 mmHg 91%
    22:00 +20°C° 0.1 mm 0 mps 686 mmHg 91%
    23:00 +20°C° 0.1 mm 0 mps 686 mmHg 90%

    2 June, Tuesday

    Time Temperature Precipitation Wind Pressure Humidity
    00:00 +20°C° 0.1 mm 0 mps 686 mmHg 90%
    01:00 +19°C° 0 mm 0 mps 686 mmHg 90%
    02:00 +19°C° 0 mm 0 mps 685 mmHg 91%
    03:00 +19°C° 0 mm 0 mps 685 mmHg 91%
    04:00 +19°C° 0 mm 0 mps 685 mmHg 91%
    05:00 +21°C° 0 mm 1 mps 685 mmHg 91%
    06:00 +22°C° 0 mm 1 mps 686 mmHg 91%
    07:00 +23°C° 0 mm 1 mps 686 mmHg 86%
    08:00 +25°C° 0 mm 1 mps 687 mmHg 81%
    09:00 +26°C° 0 mm 1 mps 687 mmHg 76%
    10:00 +26°C° 1.1 mm 1 mps 687 mmHg 76%
    11:00 +27°C° 1.1 mm 1 mps 687 mmHg 77%
    12:00 +27°C° 1.1 mm 1 mps 686 mmHg 77%
    13:00 +26°C° 2.2 mm 1 mps 686 mmHg 81%
    14:00 +26°C° 2.2 mm 1 mps 685 mmHg 84%
    15:00 +25°C° 2.2 mm 1 mps 684 mmHg 87%
    16:00 +24°C° 1.3 mm 1 mps 684 mmHg 90%
    17:00 +23°C° 1.3 mm 1 mps 685 mmHg 92%
    18:00 +23°C° 1.3 mm 1 mps 685 mmHg 95%
    19:00 +22°C° 1.1 mm 1 mps 685 mmHg 95%
    20:00 +22°C° 1.1 mm 1 mps 686 mmHg 95%
    21:00 +22°C° 1.1 mm 1 mps 686 mmHg 95%
    22:00 +20°C° 0.3 mm 0 mps 686 mmHg 94%
    23:00 +20°C° 0.3 mm 0 mps 685 mmHg 94%
    Show more